{"data":{"norad_id":63444,"epoch":"2026-05-24T17:16:47.564544Z","epoch_age_seconds":102699,"freshness":"FRESH","line1":"1 63444U 25069M   26144.71999496  .00039838  00000+0  91936-3 0  9995","line2":"2 63444  53.1583 146.6003 0001369  88.5608 271.5555 15.42185999 65028","mean_motion":15.42185999,"eccentricity":0.0001369,"inclination_deg":53.1583,"raan_deg":146.6003,"arg_perigee_deg":88.5608,"mean_anomaly_deg":271.5555,"bstar":0.00091936,"rev_number":6502,"period_min":93.373951062566,"perigee_km":438.72567096577,"apogee_km":440.59238351803,"semimajor_km":6817.7960272419,"source":"CELESTRAK","updated_at":"2026-05-25T13:38:20.000251Z"}}